Погода в Мельцанах

Россия / Республика Мордовия     54°27′21″N   44°43′30″E
темп.,
°C
ветер,
м/с
пор.,
м/с
влажн.,
%
обл.,
%
осадки,
мм/ч
давл.,
гПа
погр.,
м
5 марта, пт
пт500:00−4сз1294100 0.1 99922
03:00−4с2297100 0.9 100066
06:00−5ссз2297100 0.9 100180
09:00−5ссз4695100 1.6 1003350
12:00−4сз359096 0.1 1006550
15:00−4зсз358792 0.1 1008580
18:00−7зюз448935 0.0 101062
21:00−7зюз5119363 0.1 1012297
6 марта, сб
сб600:00−10з479588 0.0 1013122
03:00−13з459644 0.0 101579
06:00−15зсз33960 0.0 101623
09:00−13зсз12920 0.0 101757
12:00−9ююз12820 0.0 1016222
15:00−7ююз238910 0.0 1015297
18:00−11зюз239241 0.0 101421
21:00−13юз339530 0.0 101528
7 марта, вс
вс700:00−12з359690 0.1 101496
03:00−14з349475 0.1 101431
06:00−17зюз34960 0.0 101330
09:00−12юз5109528 0.0 1011276
12:00−7юз7128598 0.0 1008680
15:00−6ююз9158299 0.0 1004968
18:00−6ююз101793100 0.9 10001118
21:00−5ююз91594100 2.1 996905
8 марта, пн
пн800:00−5з81295100 1.4 996770
03:00−9з6138698 1.6 999381
06:00−13юз6138928 0.0 1000284
09:00−9юз8158548 0.0 998606
12:00−5юз8129294 0.1 9961078
15:00−5з8128897 0.7 9961037
18:00−10зюз6139051 0.1 998395
21:00−10з7159075 0.5 1002629
9 марта, вт
вт900:00−11з61291100 0.1 1004598
03:00−14з5119499 0.2 1007313
06:00−17з479886 0.0 1009133
09:00−16з479578 0.0 1011233
12:00−13зсз359094 0.0 1012467
15:00−11зсз458896 0.1 1013775
18:00−15сз3493100 0.1 101377
21:00−18сз349693 0.1 101673